CST,Max TemperatureF,Mean TemperatureF,Min TemperatureF,Max Dew PointF,MeanDew PointF,Min DewpointF,Max Humidity, Mean Humidity, Min Humidity, Max Sea Level PressureIn, Mean Sea Level PressureIn, Min Sea Level PressureIn, Max VisibilityMiles, Mean VisibilityMiles, Min VisibilityMiles, Max Wind SpeedMPH, Mean Wind SpeedMPH, Max Gust SpeedMPH,PrecipitationIn, CloudCover, Events, WindDirDegrees
2013-12-1,41,32,22,25,24,20,88,71,54,30.21,30.12,29.99,10,9,5,9,3,10,0.00,2,,320
2013-12-2,42,33,23,34,29,21,96,79,62,29.97,29.79,29.68,8,5,2,15,7,20,0.20,6,Rain-Snow,128
2013-12-3,37,36,35,36,33,32,92,89,85,29.78,29.71,29.65,10,5,2,13,7,17,0.20,8,Rain,92
2013-12-4,39,33,27,38,33,19,100,86,72,29.78,29.57,29.40,10,5,1,24,8,31,0.10,8,Rain,10
2013-12-5,27,18,8,16,4,-1,75,62,49,30.42,30.10,29.76,10,10,10,24,16,31,T,3,,277
2013-12-6,14,8,2,-1,-3,-6,76,67,58,30.71,30.53,30.38,10,10,10,17,10,22,0.00,2,,296
2013-12-7,12,5,-2,-1,-6,-9,76,61,46,30.82,30.74,30.68,10,10,10,12,5,15,0.00,1,,296
2013-12-8,15,12,8,9,6,-3,84,74,63,30.66,30.31,30.04,10,3,1,10,5,14,0.16,8,Snow,68
2013-12-9,13,5,-3,7,-3,-10,84,70,55,30.25,30.13,29.99,10,10,9,21,9,26,T,4,,256
2013-12-10,14,7,0,9,1,-7,83,69,55,30.29,30.02,29.84,10,6,2,25,11,32,0.02,6,Snow,203
2013-12-11,16,7,-3,10,-3,-12,80,66,51,30.62,30.46,30.23,10,8,2,23,9,29,0.02,3,Snow,297
2013-12-12,22,11,0,11,4,-8,80,68,56,30.51,30.33,30.23,10,10,10,16,7,18,0.00,3,,185
2013-12-13,24,18,11,12,10,5,84,72,59,30.30,30.23,30.18,10,10,10,17,7,22,0.00,5,,72
2013-12-14,20,16,12,14,10,3,80,71,61,30.28,30.15,30.02,10,6,1,18,7,23,0.08,8,Snow,324
2013-12-15,12,7,2,3,-4,-10,76,66,55,30.24,30.16,30.05,10,10,10,17,10,21,0.00,5,,324
2013-12-16,16,8,-1,11,2,-11,83,70,56,30.23,30.09,30.00,10,6,0,12,6,14,0.07,8,Snow,166
2013-12-17,33,23,13,23,16,6,88,73,58,30.15,30.03,29.93,10,10,5,23,13,28,T,5,Snow,272
2013-12-18,39,23,7,26,16,2,91,71,51,30.16,29.91,29.73,10,10,10,23,7,30,0.00,0,,167
2013-12-19,28,23,17,21,18,15,96,82,68,30.05,29.93,29.81,10,7,0,14,7,21,0.01,3,Fog-Rain,30
2013-12-20,25,23,20,20,17,16,92,85,77,30.01,29.94,29.87,10,6,1,14,6,17,0.11,8,Rain-Snow,1
2013-12-21,28,25,22,23,20,18,92,84,75,29.96,29.93,29.87,10,10,9,13,6,16,T,8,,353
2013-12-22,26,20,13,21,19,7,92,83,73,30.24,29.98,29.83,10,4,1,16,10,18,0.21,8,Snow,318
2013-12-23,12,1,-10,3,-4,-13,83,73,62,30.59,30.41,30.21,10,8,2,14,8,17,0.03,7,Snow,267
2013-12-24,11,0,-12,5,-3,-16,86,75,63,30.63,30.41,30.21,10,6,0,18,8,23,0.19,5,Snow,168
2013-12-25,26,17,8,21,12,3,88,78,67,30.28,30.15,30.05,10,7,1,17,8,22,0.04,8,Snow,194
2013-12-26,26,19,11,19,13,5,81,75,68,30.23,30.20,30.14,10,10,6,9,3,12,T,7,Snow,170
2013-12-27,40,25,10,29,19,8,96,80,64,30.26,30.14,30.00,10,7,1,16,6,20,0.00,1,,165
2013-12-28,42,32,21,31,27,22,92,75,57,30.05,29.87,29.75,10,10,7,23,10,29,0.00,1,,177
2013-12-29,34,12,-11,31,5,-19,89,71,53,30.39,30.12,29.80,10,9,4,29,15,35,T,5,Rain,332
2013-12-30,2,-7,-17,-2,-9,-21,91,75,58,30.43,30.30,30.20,10,6,1,9,2,12,0.06,5,Snow,176
2013-12-31,5,-1,-7,-3,-7,-14,87,72,56,30.48,30.38,30.28,10,9,2,9,5,10,0.01,6,Snow,329